マスター彗星

C/2016 N4 ( MASTER )

English version
Home page
Updated on September 23, 2018

---------------------------------------------------------------------

・ プロフィール

発見日 2016年7月15日
発見光度 16.8等
発見者 Mobile Astronomical System of the Telescope-Robots (MASTER)

・ 写真集

・ 軌道要素

Epoch 2017 Sept. 4.0 TT = JDT 2458000.5
T 2017 Sept. 16.59728 TT                                MPCW
q   3.1991120            (2000.0)            P               Q
z  +0.0001927      Peri.   55.95530     +0.58263153     -0.80665942
 +/-0.0000004      Node   354.03139     -0.14120886     +0.01973065
e   0.9993836      Incl.   72.55728     +0.80037526     +0.59068712
From 1718 observations 2015 Sept. 11-2018 Aug. 17, mean residual 0".5.

・ 星図

・ 光度変化

        m1 = 7.0 + 5 logΔ + 10.0 log r(t + 100)

---------------------------------------------------------------------

軌道要素はM.P.E.C. 2018-S50に掲載されたものです。
星図はステラナビゲータ Ver.10 (アストロアーツ) で作成したものです。
光度グラフはComet for Windowsで作成したものです。

---------------------------------------------------------------------

Copyright(C) Seiichi Yoshida (comet@aerith.net). All rights reserved.